Preview of NWS' New Version of Forecast
This preview is not operational and should not be used for support decisions.

Regional Weather Roundup (RWR)

Issued by National Weather Service (NWS)

                            
000
ASUS45 KBOU 212210
RWRCO 

WEATHER ROUNDUP FOR COLORADO
NATIONAL WEATHER SERVICE DENVER/BOULDER CO
400 PM MDT SUN APR 21 2019

NOTE: "FAIR" INDICATES FEW OR NO CLOUDS BELOW 12000 FEET WITH NO
SIGNIFICANT WEATHER AND/OR OBSTRUCTIONS TO VISIBILITY.

COZ001>005-013-030-031-212300-
...NORTHWEST COLORADO...
  
CITY           SKY/WX    TMP DP  RH WIND       PRES   REMARKS
CRAIG          FAIR      55  37  50 E12       29.93F                  
HAYDEN         FAIR      49  38  65 E10       29.97F                  
MEEKER         PTSUNNY   57  34  41 N6        29.91F                  
RANGELY        FAIR      54  43  65 S7        29.90S                  
RABBIT EARS PA MOCLDY    36  32  87 W10G17    30.08S                  
STEAMBOAT SPGS FAIR      47  38  71 SE5       29.98F                  
WALDEN         CLOUDY    41  34  75 E8        30.02R                  
$$

COZ006>008-011-212300-
...WEST CENTRAL VALLEYS...
  
CITY           SKY/WX    TMP DP  RH WIND       PRES   REMARKS
GRAND JUNCTION FAIR      56  44  64 NE9       29.87F                  
MONTROSE       PTSUNNY   67  20  16 W17G29    29.87F                  
EAGLE          FAIR      59  31  34 CALM      29.97F                  
RIFLE          LGT RAIN  56  40  55 VRB7      29.93F                  
DELTA          PTSUNNY   69  29  22 N6        29.86F                  
NUCLA          FAIR      68  14  12 SW12G24   29.91F                  
$$

COZ017>023-064>068-212300-
...SOUTHWEST COLORADO...
  
CITY           SKY/WX    TMP DP  RH WIND       PRES   REMARKS
DURANGO        FAIR      65  14  14 W17G24    29.94F                  
CORTEZ         FAIR      68  18  14 VRB6G24   29.91F                  
PAGOSA SPRINGS FAIR      62  15  16 SW10G23   30.00F                  
TELLURIDE      CLOUDY    52  18  25 SW12G23   30.04F                  
WOLF CREEK PAS CLOUDY    34  18  51 S15G26    30.21S WCI  24          
$$

COZ009-010-012-014-032>034-037-058>063-212300-
...CENTRAL COLORADO...
  
CITY           SKY/WX    TMP DP  RH WIND       PRES   REMARKS
ASPEN          PTSUNNY   52  28  39 S20G31    30.00R                  
BUENA VISTA    FAIR      58  18  21 W14G22    29.97S                  
COPPER MTN     FAIR      36  28  75 W18G25    30.15S                  
BERTHOUD PASS  CLOUDY    25  14  63 W20G28    30.14R WCI  11          
COTTONWOOD PAS FAIR      52  18  25 W10G25    30.04R                  
GUNNISON       FAIR      54  25  32 CALM      29.99S                  
GRANBY         CLOUDY    43  31  62 W5        30.05F                  
KREMMLING      CLOUDY    48  32  53 SW3       30.00F                  
LEADVILLE      FAIR      44  21  40 NW10G23   30.04F                  
MONARCH PASS   CLOUDY    32  27  80 SW18      30.26R HAZE    WCI  20  
SALIDA         PTSUNNY   59  19  20 SW18G25   30.05R                  
SUNLIGHT       CLOUDY    37  28  70 W5        30.13S                  
WILKERSON PASS FAIR      43  21  42 W8        30.13S                  
$$

COZ069>075-212300-
...SAN LUIS VALLEY/SANGRE DE CRISTO MOUNTAINS...
  
CITY           SKY/WX    TMP DP  RH WIND       PRES   REMARKS
ALAMOSA        FAIR      64   9  11 SW26G40   29.95S                  
DEL NORTE      FAIR      62  18  18 W21G28    29.98F                  
LA VETA PASS   NOT AVBL                                               
SAGUACHE       FAIR      61  19  20 NW7       29.95F                  
$$

COZ035-036-038>040-212300-
...NORTHERN COLORADO FRONT RANGE...
  
CITY           SKY/WX    TMP DP  RH WIND       PRES   REMARKS
DENVER INTL AP PTSUNNY   50  45  83 NE21      29.91S                  
AURORA         LGT RAIN  52  47  83 NE17      29.93R                  
FRONT RANGE AP CLOUDY    54  45  71 N16G25    29.93R                  
ERIE MUNI ARPT RAIN      56  42  58 NE7       29.97R                  
BOULDER MUN AP RAIN      54  43  66 SW21G29   29.95R                  
CENTENNIAL     PTSUNNY   61  37  41 NE9       29.91R                  
BROOMFIELD     HVY RAIN  54  39  58 W33G39    29.94R VSB 1            
FORT COLLINS   CLOUDY    59  44  57 N20       29.90                   
LONGMONT       CLOUDY    60  46  59 SW9       29.94R                  
$$

COZ041-046-047-076>085-087-088-212300-
...PIKES PEAK/PALMER DIVIDE AND SOUTHERN FOOTHILLS...
  
CITY           SKY/WX    TMP DP  RH WIND       PRES   REMARKS
COLO. SPRINGS  PTSUNNY   68  29  23 VRB3      29.87F                  
A. F. ACADEMY  FAIR      61  32  34 N14       29.87F                  
SCHRIEVER AFB  NOT AVBL                                               
CHEYENNE MTN   FAIR      58  30  34 N15       29.85F                  
ELLICOTT         N/A    N/A N/A N/A NW9       29.86F                  
FALCON         FAIR      63  29  28 N14G22    29.92F                  
FORT CARSON    FAIR      68  30  24 NW20      29.84F                  
LIMON          LGT RAIN  50  43  77 NW28G37   29.87R                  
MONUMENT HILL  FAIR      52  34  50 N6        29.95F                  
CANON CITY     FAIR      73  25  16 SW20G28   29.81F                  
WALSENBURG     NOT AVBL                                               
TRINIDAD       FAIR      73  20  13 VRB7G21   29.83F                  
$$

COZ042>045-048>051-090-091-212300-
...NORTHEAST COLORADO...
  
CITY           SKY/WX    TMP DP  RH WIND       PRES   REMARKS
GREELEY ARPT   FAIR      60  43  53 N17       29.90R                  
AKRON          FAIR      62  45  53 N29       29.83R                  
BURLINGTON     LGT RAIN  62  45  53 NE17G31   29.78F                  
WRAY           FAIR      70  45  40 N20G25    29.78R                  
YUMA           NOT AVBL                                               
STERLING       PTSUNNY   64  46  52 N23G32    29.83R                  
HOLYOKE        PTSUNNY   66  46  48 N18       29.80R                  
FORT MORGAN    NOT AVBL                                               
$$

COZ086-089-092>099-212300-
...SOUTHEAST COLORADO...
  
CITY           SKY/WX    TMP DP  RH WIND       PRES   REMARKS
PUEBLO         FAIR      75  29  18 VRB3      29.77F                  
LA JUNTA       FAIR      81  28  14 NW17G30   29.73F                  
LAMAR          FAIR      81  27  14 W13       29.69F                  
SPRINGFIELD      N/A     77  29  17 W9        29.75F                  
$$